Weather History for PHHI - December, 2011

Change the Weather History Date:

Thursday, December 29, 2011

  Actual Average Record
Temperature  
Mean Temperature 71 °F -  
Max Temperature 74 °F 74 °F 78 °F (2005)
Min Temperature 67 °F 60 °F 57 °F (1999)
Cooling Degree Days 6    
Growing Degree Days 21 (Base 50)    
Moisture  
Dew Point 60 °F    
Average Humidity 69    
Maximum Humidity 78    
Minimum Humidity 53    
Precipitation  
Precipitation 0.00 in - - ()
Sea Level Pressure  
Sea Level Pressure 30.10 in    
Wind  
Wind Speed 6 mph (East)    
Max Wind Speed 20 mph    
Max Gust Speed 25 mph    
Visibility 10 miles    
Events      
Averages and records for this station are not official NWS values.
T = Trace of Precipitation, MM = Missing Value Source: NWS Daily Summary

Daily Weather History Graph

Daily Weather History Graph

Search for Another Location

Airport or City:

Trip Planner

Search our weather history database for the weather conditions in past years. The results will help you decide how hot, cold, wet, or windy it might be!

Date:

Astronomy

Dec. 29, 2011 Rise Set
Actual Time 7:09 AM HST 5:59 PM HST
Civil Twilight 6:44 AM HST 6:23 PM HST
Nautical Twilight 6:17 AM HST 6:51 PM HST
Astronomical Twilight 5:49 AM HST 7:18 PM HST
Moon 10:47 AM HST (12/29) 11:03 PM HST (12/29)
Length of Visible Light 11h 38m
Length of Day
10h 50m
Waxing Crescent, 28% of the Moon is Illuminated
Dec 29
Waxing Crescent
Dec 31
First Quarter
Jan 8
Full
Jan 15
Last Quarter
Jan 22
New

Hourly Weather History & Observations

Time (HST) Temp. Dew Point Humidity Pressure Visibility Wind Dir Wind Speed Gust Speed Precip Events Conditions
12:27 AM 69.8 °F 62.6 °F 78% 30.13 in 10.0 mi Variable 4.6 mph - N/A   Mostly Cloudy
12:55 AM 70.0 °F 62.4 °F 77% 30.13 in 10.0 mi Variable 3.5 mph - N/A   Overcast
1:40 AM 69.8 °F 60.8 °F 73% 30.11 in 10.0 mi East 10.4 mph - N/A   Scattered Clouds
1:46 AM 69.8 °F 60.8 °F 73% 30.11 in 10.0 mi East 4.6 mph - N/A   Mostly Cloudy
1:55 AM 69.8 °F 61.7 °F 75% 30.11 in 10.0 mi ESE 3.5 mph - N/A   Mostly Cloudy
2:55 AM 69.1 °F 61.0 °F 75% 30.10 in 10.0 mi Calm Calm - N/A   Mostly Cloudy
2:57 AM 69.8 °F 60.8 °F 73% 30.10 in 10.0 mi Variable 5.8 mph - N/A   Scattered Clouds
3:23 AM 69.8 °F 60.8 °F 73% 30.10 in 10.0 mi ESE 4.6 mph - N/A   Mostly Cloudy
3:27 AM 69.8 °F 60.8 °F 73% 30.10 in 10.0 mi ESE 5.8 mph - N/A   Mostly Cloudy
3:55 AM 69.6 °F 61.9 °F 76% 30.10 in 10.0 mi East 6.9 mph - N/A   Mostly Cloudy
3:57 AM 69.8 °F 62.6 °F 78% 30.10 in 10.0 mi East 6.9 mph - N/A   Scattered Clouds
4:23 AM 69.8 °F 60.8 °F 73% 30.10 in 10.0 mi East 9.2 mph - N/A   Mostly Cloudy
4:55 AM 69.6 °F 61.7 °F 76% 30.11 in 10.0 mi ENE 4.6 mph - N/A   Overcast
5:55 AM 69.4 °F 61.0 °F 74% 30.11 in 10.0 mi ENE 5.8 mph - N/A   Overcast
6:36 AM 69.8 °F 60.8 °F 73% 30.12 in 10.0 mi ESE 10.4 mph - N/A   Overcast
6:37 AM 69.8 °F 60.8 °F 73% 30.11 in 10.0 mi Variable 6.9 mph - N/A   Overcast
6:39 AM 69.8 °F 60.8 °F 73% 30.12 in 10.0 mi SSE 5.8 mph - N/A   Overcast
6:50 AM 69.8 °F 60.8 °F 73% 30.12 in 10.0 mi ESE 5.8 mph - N/A   Overcast
6:55 AM 69.3 °F 60.1 °F 72% 30.12 in 10.0 mi ESE 3.5 mph - N/A   Overcast
6:57 AM 69.8 °F 60.8 °F 73% 30.12 in 10.0 mi ESE 3.5 mph - N/A   Overcast
7:09 AM 69.8 °F 60.8 °F 73% 30.12 in 10.0 mi East 6.9 mph - N/A   Overcast
7:55 AM 69.1 °F 60.6 °F 74% 30.14 in 10.0 mi ENE 4.6 mph - N/A   Overcast
8:05 AM 69.8 °F 59.0 °F 68% 30.14 in 10.0 mi East 4.6 mph - N/A   Overcast
8:55 AM 72.0 °F 58.6 °F 63% 30.16 in 10.0 mi ESE 10.4 mph - N/A   Overcast
9:55 AM 72.5 °F 59.0 °F 62% 30.16 in 10.0 mi East 10.4 mph - N/A   Mostly Cloudy
10:55 AM 73.4 °F 58.3 °F 59% 30.14 in 10.0 mi East 9.2 mph 21.9 mph N/A   Overcast
11:55 AM 73.9 °F 59.7 °F 61% 30.12 in 10.0 mi East 12.7 mph - N/A   Overcast
12:55 PM 73.4 °F 57.7 °F 58% 30.09 in 10.0 mi ENE 16.1 mph 23.0 mph N/A   Overcast
1:55 PM 74.8 °F 56.7 °F 53% 30.06 in 10.0 mi East 19.6 mph 25.3 mph N/A   Mostly Cloudy
2:55 PM 74.1 °F 58.1 °F 57% 30.05 in 10.0 mi East 12.7 mph 19.6 mph N/A   Mostly Cloudy
3:55 PM 73.2 °F 57.7 °F 58% 30.05 in 10.0 mi ESE 15.0 mph 20.7 mph N/A   Overcast
4:55 PM 72.5 °F 58.6 °F 62% 30.05 in 10.0 mi ENE 8.1 mph - N/A   Scattered Clouds
5:55 PM 70.7 °F 58.5 °F 65% 30.06 in 10.0 mi East 15.0 mph 20.7 mph N/A   Scattered Clouds
6:55 PM 69.8 °F 57.7 °F 65% 30.07 in 10.0 mi ENE 4.6 mph - N/A   Mostly Cloudy
7:40 PM 69.8 °F 59.0 °F 68% 30.08 in 10.0 mi Calm Calm - N/A   Overcast
7:50 PM 69.8 °F 59.0 °F 68% 30.08 in 10.0 mi SSE 3.5 mph - N/A   Overcast
7:55 PM 68.9 °F 59.4 °F 72% 30.08 in 10.0 mi Calm Calm - N/A   Overcast
8:55 PM 69.3 °F 56.8 °F 65% 30.09 in 10.0 mi East 11.5 mph - N/A   Mostly Cloudy
9:55 PM 68.9 °F 57.0 °F 66% 30.09 in 10.0 mi East 10.4 mph - N/A   Mostly Cloudy
10:55 PM 68.9 °F 57.4 °F 67% 30.08 in 10.0 mi ENE 6.9 mph - N/A   Overcast
11:06 PM 68.0 °F 57.2 °F 68% 30.07 in 10.0 mi East 9.2 mph - N/A   Overcast
11:55 PM 67.3 °F 55.2 °F 65% 30.07 in 10.0 mi East 4.6 mph - 0.00 in   Mostly Cloudy